Year,Month,Day,Hour,Minute,Value (Times are PST for temperature in C)
2015,08,12,00,00,19.10
2015,08,12,00,01,19.10
2015,08,12,00,02,19.10
2015,08,12,00,03,19.10
2015,08,12,00,04,19.10
2015,08,12,00,05,19.10
2015,08,12,00,06,19.10
2015,08,12,00,07,19.10
2015,08,12,00,08,19.10
2015,08,12,00,09,19.10
2015,08,12,00,10,19.10
2015,08,12,00,11,19.00
2015,08,12,00,12,19.00
2015,08,12,00,13,19.00
2015,08,12,00,14,18.90
2015,08,12,00,15,18.90
2015,08,12,00,16,18.90
2015,08,12,00,17,18.90
2015,08,12,00,18,18.90
2015,08,12,00,19,18.90
2015,08,12,00,20,18.90
2015,08,12,00,21,18.90
2015,08,12,00,22,18.80
2015,08,12,00,23,18.80
2015,08,12,00,24,18.80
2015,08,12,00,25,18.80
2015,08,12,00,26,18.80
2015,08,12,00,27,18.80
2015,08,12,00,28,18.80
2015,08,12,00,29,18.80
2015,08,12,00,30,18.80
2015,08,12,00,31,18.80
2015,08,12,00,32,18.80
2015,08,12,00,33,18.80
2015,08,12,00,34,18.70
2015,08,12,00,35,18.70
2015,08,12,00,36,18.70
2015,08,12,00,37,18.70
2015,08,12,00,38,18.70
2015,08,12,00,39,18.60
2015,08,12,00,40,18.60
2015,08,12,00,41,18.60
2015,08,12,00,42,18.50
2015,08,12,00,43,18.50
2015,08,12,00,44,18.50
2015,08,12,00,45,18.40
2015,08,12,00,46,18.40
2015,08,12,00,47,18.40
2015,08,12,00,48,18.40
2015,08,12,00,49,18.30
2015,08,12,00,50,18.30
2015,08,12,00,51,18.30
2015,08,12,00,52,18.30
2015,08,12,00,53,18.20
2015,08,12,00,54,18.20
2015,08,12,00,55,18.20
2015,08,12,00,56,18.20
2015,08,12,00,57,18.20
2015,08,12,00,58,18.20
2015,08,12,00,59,18.20
2015,08,12,01,00,18.20
2015,08,12,01,01,18.20
2015,08,12,01,02,18.10
2015,08,12,01,03,18.10
2015,08,12,01,04,18.10
2015,08,12,01,05,18.10
2015,08,12,01,06,18.10
2015,08,12,01,07,18.10
2015,08,12,01,08,18.10
2015,08,12,01,09,18.00
2015,08,12,01,10,18.00
2015,08,12,01,11,17.90
2015,08,12,01,12,17.90
2015,08,12,01,13,17.90
2015,08,12,01,14,17.90
2015,08,12,01,15,17.80
2015,08,12,01,16,17.80
2015,08,12,01,17,17.80
2015,08,12,01,18,17.80
2015,08,12,01,19,17.80
2015,08,12,01,20,17.70
2015,08,12,01,21,17.70
2015,08,12,01,22,17.70
2015,08,12,01,23,17.70
2015,08,12,01,24,17.60
2015,08,12,01,25,17.60
2015,08,12,01,26,17.60
2015,08,12,01,27,17.50
2015,08,12,01,28,17.50
2015,08,12,01,29,17.50
2015,08,12,01,30,17.40
2015,08,12,01,31,17.40
2015,08,12,01,32,17.40
2015,08,12,01,33,17.40
2015,08,12,01,34,17.30
2015,08,12,01,35,17.30
2015,08,12,01,36,17.30
2015,08,12,01,37,17.30
2015,08,12,01,38,17.30
2015,08,12,01,39,17.20
2015,08,12,01,40,17.20
2015,08,12,01,41,17.20
2015,08,12,01,42,17.20
2015,08,12,01,43,17.20
2015,08,12,01,44,17.10
2015,08,12,01,45,17.10
2015,08,12,01,46,17.10
2015,08,12,01,47,17.10
2015,08,12,01,48,17.10
2015,08,12,01,49,17.10
2015,08,12,01,50,17.00
2015,08,12,01,51,17.00
2015,08,12,01,52,17.00
2015,08,12,01,53,16.90
2015,08,12,01,54,16.90
2015,08,12,01,55,16.90
2015,08,12,01,56,16.90
2015,08,12,01,57,16.90
2015,08,12,01,58,16.80
2015,08,12,01,59,16.80
2015,08,12,02,00,16.80
2015,08,12,02,01,16.80
2015,08,12,02,02,16.70
2015,08,12,02,03,16.70
2015,08,12,02,04,16.70
2015,08,12,02,05,16.70
2015,08,12,02,06,16.60
2015,08,12,02,07,16.60
2015,08,12,02,08,16.60
2015,08,12,02,09,16.50
2015,08,12,02,10,16.50
2015,08,12,02,11,16.50
2015,08,12,02,12,16.40
2015,08,12,02,13,16.40
2015,08,12,02,14,16.40
2015,08,12,02,15,16.40
2015,08,12,02,16,16.30
2015,08,12,02,17,16.30
2015,08,12,02,18,16.30
2015,08,12,02,19,16.30
2015,08,12,02,20,16.30
2015,08,12,02,21,16.30
2015,08,12,02,22,16.30
2015,08,12,02,23,16.20
2015,08,12,02,24,16.20
2015,08,12,02,25,16.20
2015,08,12,02,26,16.20
2015,08,12,02,27,16.20
2015,08,12,02,28,16.10
2015,08,12,02,29,16.10
2015,08,12,02,30,16.10
2015,08,12,02,31,16.10
2015,08,12,02,32,16.00
2015,08,12,02,33,16.00
2015,08,12,02,34,16.00
2015,08,12,02,35,15.90
2015,08,12,02,36,15.90
2015,08,12,02,37,15.90
2015,08,12,02,38,15.90
2015,08,12,02,39,15.90
2015,08,12,02,40,15.90
2015,08,12,02,41,15.90
2015,08,12,02,42,15.90
2015,08,12,02,43,15.80
2015,08,12,02,44,15.80
2015,08,12,02,45,15.80
2015,08,12,02,46,15.80
2015,08,12,02,47,15.80
2015,08,12,02,48,15.70
2015,08,12,02,49,15.70
2015,08,12,02,50,15.70
2015,08,12,02,51,15.60
2015,08,12,02,52,15.60
2015,08,12,02,53,15.60
2015,08,12,02,54,15.60
2015,08,12,02,55,15.60
2015,08,12,02,56,15.60
2015,08,12,02,57,15.60
2015,08,12,02,58,15.60
2015,08,12,02,59,15.50
2015,08,12,03,00,15.50
2015,08,12,03,01,15.50
2015,08,12,03,02,15.50
2015,08,12,03,03,15.40
2015,08,12,03,04,15.40
2015,08,12,03,05,15.40
2015,08,12,03,06,15.40
2015,08,12,03,07,15.30
2015,08,12,03,08,15.30
2015,08,12,03,09,15.30
2015,08,12,03,10,15.30
2015,08,12,03,11,15.20
2015,08,12,03,12,15.20
2015,08,12,03,13,15.20
2015,08,12,03,14,15.20
2015,08,12,03,15,15.20
2015,08,12,03,16,15.10
2015,08,12,03,17,15.10
2015,08,12,03,18,15.10
2015,08,12,03,19,15.10
2015,08,12,03,20,15.00
2015,08,12,03,21,15.00
2015,08,12,03,22,15.00
2015,08,12,03,23,15.00
2015,08,12,03,24,15.00
2015,08,12,03,25,15.00
2015,08,12,03,26,15.00
2015,08,12,03,27,15.00
2015,08,12,03,28,15.00
2015,08,12,03,29,15.00
2015,08,12,03,30,15.00
2015,08,12,03,31,15.00
2015,08,12,03,32,15.00
2015,08,12,03,33,15.00
2015,08,12,03,34,15.00
2015,08,12,03,35,15.00
2015,08,12,03,36,15.00
2015,08,12,03,37,15.00
2015,08,12,03,38,15.00
2015,08,12,03,39,15.00
2015,08,12,03,40,15.00
2015,08,12,03,41,15.00
2015,08,12,03,42,15.00
2015,08,12,03,43,15.00
2015,08,12,03,44,14.90
2015,08,12,03,45,14.90
2015,08,12,03,46,14.90
2015,08,12,03,47,14.80
2015,08,12,03,48,14.80
2015,08,12,03,49,14.80
2015,08,12,03,50,14.70
2015,08,12,03,51,14.70
2015,08,12,03,52,14.70
2015,08,12,03,53,14.60
2015,08,12,03,54,14.60
2015,08,12,03,55,14.60
2015,08,12,03,56,14.60
2015,08,12,03,57,14.50
2015,08,12,03,58,14.50
2015,08,12,03,59,14.50
2015,08,12,04,00,14.40
2015,08,12,04,01,14.40
2015,08,12,04,02,14.40
2015,08,12,04,03,14.40
2015,08,12,04,04,14.40
2015,08,12,04,05,14.30
2015,08,12,04,06,14.30
2015,08,12,04,07,14.30
2015,08,12,04,08,14.30
2015,08,12,04,09,14.30
2015,08,12,04,10,14.20
2015,08,12,04,11,14.20
2015,08,12,04,12,14.20
2015,08,12,04,13,14.20
2015,08,12,04,14,14.10
2015,08,12,04,15,14.10
2015,08,12,04,16,14.10
2015,08,12,04,17,14.10
2015,08,12,04,18,14.00
2015,08,12,04,19,14.00
2015,08,12,04,20,14.00
2015,08,12,04,21,14.00
2015,08,12,04,22,14.00
2015,08,12,04,23,13.90
2015,08,12,04,24,13.90
2015,08,12,04,25,13.90
2015,08,12,04,26,13.90
2015,08,12,04,27,13.90
2015,08,12,04,28,13.90
2015,08,12,04,29,13.90
2015,08,12,04,30,13.90
2015,08,12,04,31,13.90
2015,08,12,04,32,13.90
2015,08,12,04,33,13.80
2015,08,12,04,34,13.80
2015,08,12,04,35,13.80
2015,08,12,04,36,13.80
2015,08,12,04,37,13.70
2015,08,12,04,38,13.70
2015,08,12,04,39,13.70
2015,08,12,04,40,13.70
2015,08,12,04,41,13.70
2015,08,12,04,42,13.60
2015,08,12,04,43,13.60
2015,08,12,04,44,13.60
2015,08,12,04,45,13.60
2015,08,12,04,46,13.60
2015,08,12,04,47,13.60
2015,08,12,04,48,13.60
2015,08,12,04,49,13.60
2015,08,12,04,50,13.60
2015,08,12,04,51,13.50
2015,08,12,04,52,13.50
2015,08,12,04,53,13.50
2015,08,12,04,54,13.50
2015,08,12,04,55,13.40
2015,08,12,04,56,13.40
2015,08,12,04,57,13.40
2015,08,12,04,58,13.40
2015,08,12,04,59,13.40
2015,08,12,05,00,13.30
2015,08,12,05,01,13.30
2015,08,12,05,02,13.30
2015,08,12,05,03,13.30
2015,08,12,05,04,13.30
2015,08,12,05,05,13.30
2015,08,12,05,06,13.30
2015,08,12,05,07,13.30
2015,08,12,05,08,13.30
2015,08,12,05,09,13.20
2015,08,12,05,10,13.20
2015,08,12,05,11,13.20
2015,08,12,05,12,13.20
2015,08,12,05,13,13.10
2015,08,12,05,14,13.10
2015,08,12,05,15,13.10
2015,08,12,05,16,13.10
2015,08,12,05,17,13.10
2015,08,12,05,18,13.00
2015,08,12,05,19,13.00
2015,08,12,05,20,12.90
2015,08,12,05,21,12.90
2015,08,12,05,22,12.90
2015,08,12,05,23,12.90
2015,08,12,05,24,12.90
2015,08,12,05,25,12.80
2015,08,12,05,26,12.80
2015,08,12,05,27,12.80
2015,08,12,05,28,12.80
2015,08,12,05,29,12.80
2015,08,12,05,30,12.70
2015,08,12,05,31,12.70
2015,08,12,05,32,12.70
2015,08,12,05,33,12.70
2015,08,12,05,34,12.70
2015,08,12,05,35,12.60
2015,08,12,05,36,12.60
2015,08,12,05,37,12.60
2015,08,12,05,38,12.60
2015,08,12,05,39,12.60
2015,08,12,05,40,12.60
2015,08,12,05,41,12.50
2015,08,12,05,42,12.50
2015,08,12,05,43,12.50
2015,08,12,05,44,12.50
2015,08,12,05,45,12.50
2015,08,12,05,46,12.50
2015,08,12,05,47,12.40
2015,08,12,05,48,12.40
2015,08,12,05,49,12.40
2015,08,12,05,50,12.40
2015,08,12,05,51,12.40
2015,08,12,05,52,12.40
2015,08,12,05,53,12.30
2015,08,12,05,54,12.30
2015,08,12,05,55,12.30
2015,08,12,05,56,12.30
2015,08,12,05,57,12.30
2015,08,12,05,58,12.30
2015,08,12,05,59,12.30
2015,08,12,06,00,12.30
2015,08,12,06,01,12.20
2015,08,12,06,02,12.20
2015,08,12,06,03,12.20
2015,08,12,06,04,12.20
2015,08,12,06,05,12.20
2015,08,12,06,06,12.20
2015,08,12,06,07,12.20
2015,08,12,06,08,12.20
2015,08,12,06,09,12.10
2015,08,12,06,10,12.10
2015,08,12,06,11,12.10
2015,08,12,06,12,12.10
2015,08,12,06,13,12.10
2015,08,12,06,14,12.10
2015,08,12,06,15,12.10
2015,08,12,06,16,12.10
2015,08,12,06,17,12.10
2015,08,12,06,18,12.10
2015,08,12,06,19,12.10
2015,08,12,06,20,12.10
2015,08,12,06,21,12.10
2015,08,12,06,22,12.10
2015,08,12,06,23,12.10
2015,08,12,06,24,12.10
2015,08,12,06,25,12.00
2015,08,12,06,26,12.00
2015,08,12,06,27,12.00
2015,08,12,06,28,12.00
2015,08,12,06,29,12.00
2015,08,12,06,30,12.00
2015,08,12,06,31,12.00
2015,08,12,06,32,12.00
2015,08,12,06,33,12.00
2015,08,12,06,34,12.00
2015,08,12,06,35,12.00
2015,08,12,06,36,12.00
2015,08,12,06,37,12.00
2015,08,12,06,38,12.00
2015,08,12,06,39,12.00
2015,08,12,06,40,12.00
2015,08,12,06,41,12.00
2015,08,12,06,42,11.90
2015,08,12,06,43,11.90
2015,08,12,06,44,11.90
2015,08,12,06,45,11.90
2015,08,12,06,46,11.90
2015,08,12,06,47,11.90
2015,08,12,06,48,11.90
2015,08,12,06,49,11.90
2015,08,12,06,50,11.90
2015,08,12,06,51,11.90
2015,08,12,06,52,11.90
2015,08,12,06,53,11.90
2015,08,12,06,54,11.90
2015,08,12,06,55,11.90
2015,08,12,06,56,11.90
2015,08,12,06,57,11.90
2015,08,12,06,58,11.90
2015,08,12,06,59,11.90
2015,08,12,07,00,12.00
2015,08,12,07,01,12.00
2015,08,12,07,02,12.00
2015,08,12,07,03,12.00
2015,08,12,07,04,12.00
2015,08,12,07,05,12.00
2015,08,12,07,06,12.00
2015,08,12,07,07,12.00
2015,08,12,07,08,12.00
2015,08,12,07,09,12.00
2015,08,12,07,10,12.00
2015,08,12,07,11,12.00
2015,08,12,07,12,12.00
2015,08,12,07,13,12.00
2015,08,12,07,14,12.00
2015,08,12,07,15,12.00
2015,08,12,07,16,12.00
2015,08,12,07,17,12.10
2015,08,12,07,18,12.10
2015,08,12,07,19,12.10
2015,08,12,07,20,12.10
2015,08,12,07,21,12.20
2015,08,12,07,22,12.20
2015,08,12,07,23,12.20
2015,08,12,07,24,12.20
2015,08,12,07,25,12.20
2015,08,12,07,26,12.20
2015,08,12,07,27,12.20
2015,08,12,07,28,12.30
2015,08,12,07,29,12.30
2015,08,12,07,30,12.30
2015,08,12,07,31,12.30
2015,08,12,07,32,12.30
2015,08,12,07,33,12.30
2015,08,12,07,34,12.40
2015,08,12,07,35,12.40
2015,08,12,07,36,12.40
2015,08,12,07,37,12.40
2015,08,12,07,38,12.40
2015,08,12,07,39,12.50
2015,08,12,07,40,12.50
2015,08,12,07,41,12.60
2015,08,12,07,42,12.60
2015,08,12,07,43,12.70
2015,08,12,07,44,12.70
2015,08,12,07,45,12.80
2015,08,12,07,46,12.80
2015,08,12,07,47,12.90
2015,08,12,07,48,13.00
2015,08,12,07,49,13.00
2015,08,12,07,50,13.10
2015,08,12,07,51,13.20
2015,08,12,07,52,13.20
2015,08,12,07,53,13.30
2015,08,12,07,54,13.40
2015,08,12,07,55,13.40
2015,08,12,07,56,13.50
2015,08,12,07,57,13.60
2015,08,12,07,58,13.70
2015,08,12,07,59,13.80
2015,08,12,08,00,13.80
2015,08,12,08,01,13.90
2015,08,12,08,02,14.00
2015,08,12,08,03,14.10
2015,08,12,08,04,14.20
2015,08,12,08,05,14.30
2015,08,12,08,06,14.40
2015,08,12,08,07,14.50
2015,08,12,08,08,14.60
2015,08,12,08,09,14.70
2015,08,12,08,10,14.80
2015,08,12,08,11,14.90
2015,08,12,08,12,15.00
2015,08,12,08,13,15.00
2015,08,12,08,14,15.00
2015,08,12,08,15,15.00
2015,08,12,08,16,15.00
2015,08,12,08,17,15.10
2015,08,12,08,18,15.20
2015,08,12,08,19,15.30
2015,08,12,08,20,15.40
2015,08,12,08,21,15.50
2015,08,12,08,22,15.50
2015,08,12,08,23,15.60
2015,08,12,08,24,15.70
2015,08,12,08,25,15.80
2015,08,12,08,26,15.90
2015,08,12,08,27,16.00
2015,08,12,08,28,16.10
2015,08,12,08,29,16.20
2015,08,12,08,30,16.30
2015,08,12,08,31,16.40
2015,08,12,08,32,16.50
2015,08,12,08,33,16.60
2015,08,12,08,34,16.70
2015,08,12,08,35,16.80
2015,08,12,08,36,16.90
2015,08,12,08,37,17.00
2015,08,12,08,38,17.10
2015,08,12,08,39,17.20
2015,08,12,08,40,17.30
2015,08,12,08,41,17.40
2015,08,12,08,42,17.60
2015,08,12,08,43,17.70
2015,08,12,08,44,17.80
2015,08,12,08,45,17.80
2015,08,12,08,46,17.90
2015,08,12,08,47,17.90
2015,08,12,08,48,18.00
2015,08,12,08,49,18.10
2015,08,12,08,50,18.10
2015,08,12,08,51,18.20
2015,08,12,08,52,18.20
2015,08,12,08,53,18.20
2015,08,12,08,54,18.30
2015,08,12,08,55,18.40
2015,08,12,08,56,18.50
2015,08,12,08,57,18.60
2015,08,12,08,58,18.60
2015,08,12,08,59,18.70
2015,08,12,09,00,18.80
2015,08,12,09,01,18.90
2015,08,12,09,02,18.90
2015,08,12,09,03,19.00
2015,08,12,09,04,19.10
2015,08,12,09,05,19.10
2015,08,12,09,06,19.10
2015,08,12,09,07,19.20
2015,08,12,09,08,19.20
2015,08,12,09,09,19.30
2015,08,12,09,10,19.30
2015,08,12,09,11,19.40
2015,08,12,09,12,19.40
2015,08,12,09,13,19.50
2015,08,12,09,14,19.60
2015,08,12,09,15,19.70
2015,08,12,09,16,19.80
2015,08,12,09,17,19.80
2015,08,12,09,18,19.90
2015,08,12,09,19,20.00
2015,08,12,09,20,20.10
2015,08,12,09,21,20.20
2015,08,12,09,22,20.30
2015,08,12,09,23,20.30
2015,08,12,09,24,20.40
2015,08,12,09,25,20.50
2015,08,12,09,26,20.60
2015,08,12,09,27,20.70
2015,08,12,09,28,20.80
2015,08,12,09,29,20.90
2015,08,12,09,30,21.00
2015,08,12,09,31,21.10
2015,08,12,09,32,21.20
2015,08,12,09,33,21.30
2015,08,12,09,34,21.40
2015,08,12,09,35,21.50
2015,08,12,09,36,21.60
2015,08,12,09,37,21.60
2015,08,12,09,38,21.70
2015,08,12,09,39,21.80
2015,08,12,09,40,21.80
2015,08,12,09,41,21.90
2015,08,12,09,42,21.90
2015,08,12,09,43,22.00
2015,08,12,09,44,22.00
2015,08,12,09,45,22.10
2015,08,12,09,46,22.20
2015,08,12,09,47,22.30
2015,08,12,09,48,22.30
2015,08,12,09,49,22.40
2015,08,12,09,50,22.50
2015,08,12,09,51,22.50
2015,08,12,09,52,22.60
2015,08,12,09,53,22.70
2015,08,12,09,54,22.80
2015,08,12,09,55,22.80
2015,08,12,09,56,22.90
2015,08,12,09,57,23.00
2015,08,12,09,58,23.10
2015,08,12,09,59,23.20
2015,08,12,10,00,23.20
2015,08,12,10,01,23.40
2015,08,12,10,02,23.40
2015,08,12,10,03,23.50
2015,08,12,10,04,23.60
2015,08,12,10,05,23.70
2015,08,12,10,06,23.70
2015,08,12,10,07,23.80
2015,08,12,10,08,23.80
2015,08,12,10,09,23.90
2015,08,12,10,10,24.00
2015,08,12,10,11,24.00
2015,08,12,10,12,24.10
2015,08,12,10,13,24.20
2015,08,12,10,14,24.30
2015,08,12,10,15,24.40
2015,08,12,10,16,24.40
2015,08,12,10,17,24.50
2015,08,12,10,18,24.60
2015,08,12,10,19,24.70
2015,08,12,10,20,24.70
2015,08,12,10,21,24.80
2015,08,12,10,22,24.80
2015,08,12,10,23,24.90
2015,08,12,10,24,24.90
2015,08,12,10,25,25.00
2015,08,12,10,26,25.10
2015,08,12,10,27,25.10
2015,08,12,10,28,25.20
2015,08,12,10,29,25.30
2015,08,12,10,30,25.30
2015,08,12,10,31,25.40
2015,08,12,10,32,25.50
2015,08,12,10,33,25.50
2015,08,12,10,34,25.60
2015,08,12,10,35,25.70
2015,08,12,10,36,25.70
2015,08,12,10,37,25.70
2015,08,12,10,38,25.80
2015,08,12,10,39,25.80
2015,08,12,10,40,25.80
2015,08,12,10,41,25.90
2015,08,12,10,42,25.90
2015,08,12,10,43,25.90
2015,08,12,10,44,25.90
2015,08,12,10,45,25.90
2015,08,12,10,46,25.90
2015,08,12,10,47,25.90
2015,08,12,10,48,25.90
2015,08,12,10,49,25.90
2015,08,12,10,50,25.90
2015,08,12,10,51,26.00
2015,08,12,10,52,26.00
2015,08,12,10,53,26.10
2015,08,12,10,54,26.20
2015,08,12,10,55,26.30
2015,08,12,10,56,26.40
2015,08,12,10,57,26.50
2015,08,12,10,58,26.60
2015,08,12,10,59,26.80
2015,08,12,11,00,26.90
2015,08,12,11,01,26.90
2015,08,12,11,02,26.90
2015,08,12,11,03,27.00
2015,08,12,11,04,27.00
2015,08,12,11,05,27.00
2015,08,12,11,06,27.10
2015,08,12,11,07,27.20
2015,08,12,11,08,27.20
2015,08,12,11,09,27.30
2015,08,12,11,10,27.40
2015,08,12,11,11,27.50
2015,08,12,11,12,27.60
2015,08,12,11,13,27.70
2015,08,12,11,14,27.80
2015,08,12,11,15,27.90
2015,08,12,11,16,28.00
2015,08,12,11,17,28.10
2015,08,12,11,18,28.20
2015,08,12,11,19,28.20
2015,08,12,11,20,28.30
2015,08,12,11,21,28.40
2015,08,12,11,22,28.40
2015,08,12,11,23,28.50
2015,08,12,11,24,28.50
2015,08,12,11,25,28.60
2015,08,12,11,26,28.70
2015,08,12,11,27,28.70
2015,08,12,11,28,28.80
2015,08,12,11,29,28.90
2015,08,12,11,30,29.00
2015,08,12,11,31,29.00
2015,08,12,11,32,29.00
2015,08,12,11,33,29.00
2015,08,12,11,34,29.10
2015,08,12,11,35,29.20
2015,08,12,11,36,29.30
2015,08,12,11,37,29.40
2015,08,12,11,38,29.40
2015,08,12,11,39,29.40
2015,08,12,11,40,29.50
2015,08,12,11,41,29.50
2015,08,12,11,42,29.60
2015,08,12,11,43,29.70
2015,08,12,11,44,29.70
2015,08,12,11,45,29.80
2015,08,12,11,46,29.80
2015,08,12,11,47,29.80
2015,08,12,11,48,29.80
2015,08,12,11,49,29.80
2015,08,12,11,50,29.90
2015,08,12,11,51,29.90
2015,08,12,11,52,30.00
2015,08,12,11,53,30.00
2015,08,12,11,54,30.10
2015,08,12,11,55,30.10
2015,08,12,11,56,30.30
2015,08,12,11,57,30.40
2015,08,12,11,58,30.50
2015,08,12,11,59,30.60
2015,08,12,12,00,30.60
2015,08,12,12,01,30.60
2015,08,12,12,02,30.60
2015,08,12,12,03,30.60
2015,08,12,12,04,30.60
2015,08,12,12,05,30.60
2015,08,12,12,06,30.60
2015,08,12,12,07,30.60
2015,08,12,12,08,30.60
2015,08,12,12,09,30.60
2015,08,12,12,10,30.60
2015,08,12,12,11,30.60
2015,08,12,12,12,30.70
2015,08,12,12,13,30.70
2015,08,12,12,14,30.70
2015,08,12,12,15,30.70
2015,08,12,12,16,30.80
2015,08,12,12,17,30.80
2015,08,12,12,18,30.80
2015,08,12,12,19,30.90
2015,08,12,12,20,31.00
2015,08,12,12,21,31.10
2015,08,12,12,22,31.20
2015,08,12,12,23,31.30
2015,08,12,12,24,31.40
2015,08,12,12,25,31.60
2015,08,12,12,26,31.70
2015,08,12,12,27,31.90
2015,08,12,12,28,32.00
2015,08,12,12,29,32.10
2015,08,12,12,30,32.20
2015,08,12,12,31,32.30
2015,08,12,12,32,32.30
2015,08,12,12,33,32.40
2015,08,12,12,34,32.50
2015,08,12,12,35,32.60
2015,08,12,12,36,32.70
2015,08,12,12,37,32.80
2015,08,12,12,38,32.90
2015,08,12,12,39,33.10
2015,08,12,12,40,33.20
2015,08,12,12,41,33.30
2015,08,12,12,42,33.30
2015,08,12,12,43,33.30
2015,08,12,12,44,33.30
2015,08,12,12,45,33.30
2015,08,12,12,46,33.30
2015,08,12,12,47,33.20
2015,08,12,12,48,33.20
2015,08,12,12,49,33.20
2015,08,12,12,50,33.20
2015,08,12,12,51,33.20
2015,08,12,12,52,33.30
2015,08,12,12,53,33.40
2015,08,12,12,54,33.50
2015,08,12,12,55,33.70
2015,08,12,12,56,33.70
2015,08,12,12,57,33.80
2015,08,12,12,58,33.90
2015,08,12,12,59,34.10
2015,08,12,13,00,34.20
2015,08,12,13,01,34.30
2015,08,12,13,02,34.30
2015,08,12,13,03,34.30
2015,08,12,13,04,34.30
2015,08,12,13,05,34.30
2015,08,12,13,06,34.20
2015,08,12,13,07,34.20
2015,08,12,13,08,34.20
2015,08,12,13,09,34.20
2015,08,12,13,10,34.10
2015,08,12,13,11,34.00
2015,08,12,13,12,33.90
2015,08,12,13,13,33.80
2015,08,12,13,14,33.80
2015,08,12,13,15,33.70
2015,08,12,13,16,33.60
2015,08,12,13,17,33.60
2015,08,12,13,18,33.50
2015,08,12,13,19,33.40
2015,08,12,13,20,33.30
2015,08,12,13,21,33.30
2015,08,12,13,22,33.20
2015,08,12,13,23,33.20
2015,08,12,13,24,33.10
2015,08,12,13,25,33.10
2015,08,12,13,26,33.10
2015,08,12,13,27,33.00
2015,08,12,13,28,32.90
2015,08,12,13,29,32.80
2015,08,12,13,30,32.80
2015,08,12,13,31,32.80
2015,08,12,13,32,32.70
2015,08,12,13,33,32.70
2015,08,12,13,34,32.70
2015,08,12,13,35,32.60
2015,08,12,13,36,32.60
2015,08,12,13,37,32.60
2015,08,12,13,38,32.60
2015,08,12,13,39,32.50
2015,08,12,13,40,32.50
2015,08,12,13,41,32.40
2015,08,12,13,42,32.40
2015,08,12,13,43,32.40
2015,08,12,13,44,32.30
2015,08,12,13,45,32.30
2015,08,12,13,46,32.30
2015,08,12,13,47,32.30
2015,08,12,13,48,32.20
2015,08,12,13,49,32.20
2015,08,12,13,50,32.10
2015,08,12,13,51,32.10
2015,08,12,13,52,32.10
2015,08,12,13,53,32.10
2015,08,12,13,54,32.10
2015,08,12,13,55,32.00
2015,08,12,13,56,32.00
2015,08,12,13,57,32.00
2015,08,12,13,58,32.00
2015,08,12,13,59,31.90
2015,08,12,14,00,31.90
2015,08,12,14,01,31.90
2015,08,12,14,02,31.90
2015,08,12,14,03,31.90
2015,08,12,14,04,31.90
2015,08,12,14,05,31.90
2015,08,12,14,06,31.90
2015,08,12,14,07,31.90
2015,08,12,14,08,31.90
2015,08,12,14,09,32.00
2015,08,12,14,10,32.00
2015,08,12,14,11,32.10
2015,08,12,14,12,32.20
2015,08,12,14,13,32.20
2015,08,12,14,14,32.40
2015,08,12,14,15,32.40
2015,08,12,14,16,32.50
2015,08,12,14,17,32.60
2015,08,12,14,18,32.70
2015,08,12,14,19,32.70
2015,08,12,14,20,32.70
2015,08,12,14,21,32.80
2015,08,12,14,22,32.80
2015,08,12,14,23,32.80
2015,08,12,14,24,32.80
2015,08,12,14,25,32.80
2015,08,12,14,26,32.90
2015,08,12,14,27,32.90
2015,08,12,14,28,32.90
2015,08,12,14,29,32.90
2015,08,12,14,30,32.90
2015,08,12,14,31,33.00
2015,08,12,14,32,33.00
2015,08,12,14,33,33.10
2015,08,12,14,34,33.10
2015,08,12,14,35,33.20
2015,08,12,14,36,33.30
2015,08,12,14,37,33.40
2015,08,12,14,38,33.40
2015,08,12,14,39,33.50
2015,08,12,14,40,33.50
2015,08,12,14,41,33.50
2015,08,12,14,42,33.50
2015,08,12,14,43,33.50
2015,08,12,14,44,33.50
2015,08,12,14,45,33.50
2015,08,12,14,46,33.50
2015,08,12,14,47,33.60
2015,08,12,14,48,33.60
2015,08,12,14,49,33.70
2015,08,12,14,50,33.70
2015,08,12,14,51,33.80
2015,08,12,14,52,33.80
2015,08,12,14,53,33.80
2015,08,12,14,54,33.80
2015,08,12,14,55,33.80
2015,08,12,14,56,33.80
2015,08,12,14,57,33.80
2015,08,12,14,58,33.70
2015,08,12,14,59,33.70
2015,08,12,15,00,33.70
2015,08,12,15,01,33.80
2015,08,12,15,02,33.80
2015,08,12,15,03,33.90
2015,08,12,15,04,34.00
2015,08,12,15,05,34.10
2015,08,12,15,06,34.10
2015,08,12,15,07,34.20
2015,08,12,15,08,34.20
2015,08,12,15,09,34.20
2015,08,12,15,10,34.30
2015,08,12,15,11,34.30
2015,08,12,15,12,34.30
2015,08,12,15,13,34.30
2015,08,12,15,14,34.30
2015,08,12,15,15,34.30
2015,08,12,15,16,34.30
2015,08,12,15,17,34.30
2015,08,12,15,18,34.30
2015,08,12,15,19,34.20
2015,08,12,15,20,34.10
2015,08,12,15,21,34.10
2015,08,12,15,22,34.10
2015,08,12,15,23,34.10
2015,08,12,15,24,34.10
2015,08,12,15,25,34.10
2015,08,12,15,26,34.10
2015,08,12,15,27,34.10
2015,08,12,15,28,34.10
2015,08,12,15,29,34.00
2015,08,12,15,30,34.00
2015,08,12,15,31,34.00
2015,08,12,15,32,34.10
2015,08,12,15,33,34.10
2015,08,12,15,34,34.20
2015,08,12,15,35,34.20
2015,08,12,15,36,34.30
2015,08,12,15,37,34.40
2015,08,12,15,38,34.40
2015,08,12,15,39,34.40
2015,08,12,15,40,34.40
2015,08,12,15,41,34.50
2015,08,12,15,42,34.50
2015,08,12,15,43,34.50
2015,08,12,15,44,34.50
2015,08,12,15,45,34.60
2015,08,12,15,46,34.60
2015,08,12,15,47,34.70
2015,08,12,15,48,34.80
2015,08,12,15,49,34.80
2015,08,12,15,50,34.90
2015,08,12,15,51,35.00
2015,08,12,15,52,35.10
2015,08,12,15,53,35.10
2015,08,12,15,54,35.20
2015,08,12,15,55,35.30
2015,08,12,15,56,35.40
2015,08,12,15,57,35.50
2015,08,12,15,58,35.50
2015,08,12,15,59,35.60
2015,08,12,16,00,35.70
2015,08,12,16,01,35.80
2015,08,12,16,02,35.80
2015,08,12,16,03,35.80
2015,08,12,16,04,35.80
2015,08,12,16,05,35.80
2015,08,12,16,06,35.80
2015,08,12,16,07,35.70
2015,08,12,16,08,35.60
2015,08,12,16,09,35.60
2015,08,12,16,10,35.50
2015,08,12,16,11,35.40
2015,08,12,16,12,35.40
2015,08,12,16,13,35.30
2015,08,12,16,14,35.20
2015,08,12,16,15,35.10
2015,08,12,16,16,35.10
2015,08,12,16,17,35.10
2015,08,12,16,18,35.10
2015,08,12,16,19,35.10
2015,08,12,16,20,35.10
2015,08,12,16,21,35.10
2015,08,12,16,22,35.00
2015,08,12,16,23,35.00
2015,08,12,16,24,35.10
2015,08,12,16,25,35.10
2015,08,12,16,26,35.20
2015,08,12,16,27,35.20
2015,08,12,16,28,35.20
2015,08,12,16,29,35.10
2015,08,12,16,30,35.00
2015,08,12,16,31,34.90
2015,08,12,16,32,34.80
2015,08,12,16,33,34.80
2015,08,12,16,34,34.70
2015,08,12,16,35,34.70
2015,08,12,16,36,34.70
2015,08,12,16,37,34.70
2015,08,12,16,38,34.70
2015,08,12,16,39,34.70
2015,08,12,16,40,34.60
2015,08,12,16,41,34.60
2015,08,12,16,42,34.60
2015,08,12,16,43,34.60
2015,08,12,16,44,34.60
2015,08,12,16,45,34.60
2015,08,12,16,46,34.60
2015,08,12,16,47,34.60
2015,08,12,16,48,34.70
2015,08,12,16,49,34.70
2015,08,12,16,50,34.70
2015,08,12,16,51,34.70
2015,08,12,16,52,34.70
2015,08,12,16,53,34.70
2015,08,12,16,54,34.70
2015,08,12,16,55,34.60
2015,08,12,16,56,34.50
2015,08,12,16,57,34.50
2015,08,12,16,58,34.40
2015,08,12,16,59,34.50
2015,08,12,17,00,34.50
2015,08,12,17,01,34.60
2015,08,12,17,02,34.60
2015,08,12,17,03,34.60
2015,08,12,17,04,34.60
2015,08,12,17,05,34.70
2015,08,12,17,06,34.70
2015,08,12,17,07,34.70
2015,08,12,17,08,34.80
2015,08,12,17,09,34.80
2015,08,12,17,10,34.80
2015,08,12,17,11,34.80
2015,08,12,17,12,34.80
2015,08,12,17,13,34.80
2015,08,12,17,14,34.80
2015,08,12,17,15,34.80
2015,08,12,17,16,34.70
2015,08,12,17,17,34.50
2015,08,12,17,18,34.30
2015,08,12,17,19,34.00